CW8919 Oeiras PT current weather conditions

sailwx.info

Wind from 066 at 1 knots gusting 20

Air temperature 18.9° C
Dewpoint 15.6° C

Last reported at 2019-Aug-24 22:59 UTC.
Time now 2019-Aug-25 00:15 UTC

Location: N 38°42' W 009°20'.
View on Google Maps.

See reports from other nearby stations

  
Tides and Currents Weather Stations Pressure Air Temp Water Temp Dewpoint Dewpoint Depression Visibility Wind Speed Wind Dir Waves Ship Positions
date/time (UTC)wind fromknots sea level pressurealtimeterstation pressurevisibilityair tempwater tempwave heightnotes
2019-Aug-24 22:59 066 1 gusting 20 18.9
2019-Aug-24 22:44 015 8 gusting 14 18.9
2019-Aug-24 22:29 346 8 gusting 17 18.9
2019-Aug-24 22:14 004 10 gusting 20 18.9
2019-Aug-24 21:59 341 6 gusting 16 19.4
2019-Aug-24 21:44 003 7 gusting 15 19.4
2019-Aug-24 21:29 057 2 gusting 17 19.4
2019-Aug-24 21:14 333 3 gusting 17 19.4
2019-Aug-24 20:59 351 9 gusting 19 19.4
2019-Aug-24 20:44 338 13 gusting 23 19.4
2019-Aug-24 20:29 329 11 gusting 21 19.4
2019-Aug-24 20:14 345 9 gusting 17 20.0
2019-Aug-24 19:59 337 5 gusting 24 20.0
2019-Aug-24 19:44 345 6 gusting 18 20.0
2019-Aug-24 19:29 340 12 gusting 25 20.6
2019-Aug-24 19:14 328 11 gusting 18 21.1
2019-Aug-24 18:59 336 11 gusting 21 21.7
2019-Aug-24 18:44 315 11 gusting 20 22.2
2019-Aug-24 18:29 010 10 gusting 21 22.8
2019-Aug-24 18:14 348 9 gusting 21 23.3
2019-Aug-24 17:59 340 7 gusting 16 23.9
2019-Aug-24 17:44 324 8 gusting 16 25.0
2019-Aug-24 17:29 015 4 gusting 18 25.6
2019-Aug-24 17:14 301 6 gusting 15 26.7
2019-Aug-24 16:59 354 11 gusting 19 27.2
2019-Aug-24 16:44 015 9 gusting 19 27.8
2019-Aug-24 16:29 015 6 gusting 19 27.8
2019-Aug-24 16:14 311 5 gusting 13 28.3
2019-Aug-24 15:59 332 6 gusting 18 28.3
2019-Aug-24 15:44 315 7 gusting 19 28.9
2019-Aug-24 15:29 345 11 gusting 19 28.9
2019-Aug-24 15:14 322 6 gusting 15 28.3
2019-Aug-24 14:59 344 9 gusting 19 27.8
2019-Aug-24 14:44 319 6 gusting 18 27.8
2019-Aug-24 14:29 313 11 gusting 19 28.3
2019-Aug-24 14:14 302 4 gusting 15 28.3
2019-Aug-24 13:59 005 4 gusting 16 28.3
2019-Aug-24 13:44 340 6 gusting 16 28.3
2019-Aug-24 13:29 029 8 gusting 17 28.3
2019-Aug-24 13:14 348 6 gusting 13 28.3
2019-Aug-24 12:59 010 6 gusting 13 28.3
2019-Aug-24 12:44 324 6 gusting 14 27.8
2019-Aug-24 12:29 344 8 gusting 13 27.8
2019-Aug-24 12:14 359 8 gusting 14 27.2
2019-Aug-24 11:59 328 6 gusting 13 27.2
2019-Aug-24 11:44 313 7 gusting 14 27.2
2019-Aug-24 11:29 066 6 gusting 13 27.8
2019-Aug-24 11:14 059 4 gusting 11 26.7
2019-Aug-24 10:59 338 8 gusting 13 26.7
2019-Aug-24 10:44 010 6 gusting 13 26.1
2019-Aug-24 10:29 261 1 gusting 6 25.0
2019-Aug-24 10:14 256 1 gusting 6 25.0
2019-Aug-24 09:59 314 0 gusting 10 25.0
2019-Aug-24 09:44 346 4 gusting 11 24.4
2019-Aug-24 09:29 360 6 gusting 13 23.9
2019-Aug-24 09:14 010 1 gusting 8 22.8
2019-Aug-24 08:59 325 3 gusting 12 22.2
2019-Aug-24 08:44 010 5 gusting 12 21.7
2019-Aug-24 08:29 041 0 gusting 12 21.1
2019-Aug-24 08:14 015 1 gusting 6 20.6
2019-Aug-24 07:59 321 20.0
2019-Aug-24 07:44 332 5 gusting 14 19.4
2019-Aug-24 07:29 010 2 gusting 11 19.4
2019-Aug-24 07:14 348 3 gusting 12 19.4
2019-Aug-24 06:59 340 6 gusting 13 18.9
2019-Aug-24 06:44 359 2 gusting 11 18.9
2019-Aug-24 06:29 337 10 gusting 17 18.9
2019-Aug-24 06:14 342 8 gusting 15 18.9
2019-Aug-24 05:59 352 5 gusting 15 18.9
2019-Aug-24 05:44 351 4 gusting 11 18.9
2019-Aug-24 05:29 356 5 gusting 9 18.9
2019-Aug-24 05:14 315 6 gusting 9 18.9
2019-Aug-24 04:59 356 5 gusting 13 19.4
2019-Aug-24 04:44 338 6 gusting 13 19.4
2019-Aug-24 04:29 010 3 gusting 6 20.0
2019-Aug-24 04:14 330 1 gusting 10 20.0
2019-Aug-24 03:59 337 3 gusting 9 20.0
2019-Aug-24 03:44 015 20.6
2019-Aug-24 03:29 010 1 gusting 5 20.6
2019-Aug-24 03:14 357 4 gusting 9 21.1
2019-Aug-24 02:59 349 21.1
2019-Aug-24 02:44 350 21.7
2019-Aug-24 02:29 349 21.7
2019-Aug-24 02:14 351 22.2
2019-Aug-24 01:59 349 1 gusting 7 22.2
2019-Aug-24 01:44 015 1 gusting 5 22.2
2019-Aug-24 01:29 020 2 gusting 5 22.2
2019-Aug-24 01:14 036 1 gusting 5 21.7
2019-Aug-24 00:59 045 0 gusting 4 22.2
2019-Aug-24 00:44 045 0 gusting 3 22.2
2019-Aug-24 00:29 346 4 gusting 10 21.7
2019-Aug-24 00:14 043 3 gusting 12 21.7
2019-Aug-23 23:59 047 6 gusting 11 21.1
2019-Aug-23 23:44 045 4 gusting 12 21.1
2019-Aug-23 23:29 051 6 gusting 11 21.1
2019-Aug-23 23:14 064 1 gusting 8 21.1
2019-Aug-23 22:59 087 2 gusting 9 21.7
2019-Aug-23 22:44 101 1 gusting 10 22.2
2019-Aug-23 22:29 015 2 gusting 17 22.8
2019-Aug-23 22:14 024 10 gusting 26 22.8
2019-Aug-23 21:59 338 9 gusting 19 22.8
2019-Aug-23 21:44 337 8 gusting 20 22.8
2019-Aug-23 21:29 347 12 gusting 20 22.8
2019-Aug-23 21:14 325 9 gusting 22 22.2
2019-Aug-23 20:59 348 15 gusting 23 22.8
2019-Aug-23 20:44 010 13 gusting 24 22.8
2019-Aug-23 20:29 325 13 gusting 21 22.8
2019-Aug-23 20:14 339 12 gusting 23 23.3
2019-Aug-23 19:59 309 13 gusting 21 23.9
2019-Aug-23 19:44 340 13 gusting 26 24.4
2019-Aug-23 19:29 341 13 gusting 19 25.0
2019-Aug-23 19:14 003 10 gusting 19 25.0
2019-Aug-23 18:59 319 8 gusting 19 25.6
2019-Aug-23 18:44 322 9 gusting 18 25.6
2019-Aug-23 18:29 359 7 gusting 20 26.1
2019-Aug-23 18:14 358 10 gusting 19 26.7
2019-Aug-23 17:59 343 11 gusting 17 27.2
2019-Aug-23 17:44 348 9 gusting 20 28.3
2019-Aug-23 17:29 024 10 gusting 14 28.9
2019-Aug-23 17:14 353 9 gusting 15 28.9
2019-Aug-23 16:44 330 6 gusting 13 30.0
2019-Aug-23 16:29 336 8 gusting 16 30.0
2019-Aug-23 16:14 003 6 gusting 13 30.6
2019-Aug-23 15:59 342 7 gusting 15 31.1
2019-Aug-23 15:44 326 7 gusting 12 31.7
2019-Aug-23 15:29 336 6 gusting 10 32.2
2019-Aug-23 15:14 025 6 gusting 9 32.2
2019-Aug-23 14:59 001 3 gusting 11 32.8
2019-Aug-23 14:44 128 3 gusting 6 32.2
2019-Aug-23 14:29 160 31.7
2019-Aug-23 14:14 161 30.6
2019-Aug-23 13:59 160 0 gusting 6 30.0
2019-Aug-23 13:44 159 2 gusting 6 29.4
2019-Aug-23 13:29 149 2 gusting 6 30.0
2019-Aug-23 13:14 134 1 gusting 6 30.0
2019-Aug-23 12:59 130 1 gusting 6 29.4
2019-Aug-23 12:44 130 2 gusting 5 28.9
2019-Aug-23 12:29 130 2 gusting 6 28.3
2019-Aug-23 12:14 128 2 gusting 6 28.3
2019-Aug-23 11:59 128 1 gusting 5 28.3
2019-Aug-23 11:44 128 1 gusting 3 27.8
2019-Aug-23 11:29 127 1 gusting 5 27.8
2019-Aug-23 11:14 127 1 gusting 6 27.2
2019-Aug-23 10:59 126 1 gusting 6 26.7
2019-Aug-23 10:44 124 4 gusting 6 27.2
2019-Aug-23 10:29 115 2 gusting 6 27.2
2019-Aug-23 10:14 107 1 gusting 5 26.7
2019-Aug-23 09:59 106 1 gusting 5 26.7
2019-Aug-23 09:44 098 2 gusting 5 27.2
2019-Aug-23 09:29 066 0 gusting 3 26.1
2019-Aug-23 09:14 049 1 gusting 4 25.6
2019-Aug-23 08:59 049 1 gusting 3 24.4
2019-Aug-23 08:44 049 1 gusting 3 23.9
2019-Aug-23 08:29 037 0 gusting 1 23.3
2019-Aug-23 08:14 037 22.8
2019-Aug-23 07:59 037 22.2
2019-Aug-23 07:44 037 0 gusting 1 21.7
2019-Aug-23 07:29 037 0 gusting 2 22.2
2019-Aug-23 07:14 037 0 gusting 2 22.2
2019-Aug-23 06:59 037 0 gusting 4 21.7
2019-Aug-23 06:44 037 0 gusting 2 21.7
2019-Aug-23 06:29 037 0 gusting 5 21.7
2019-Aug-23 06:14 035 21.7
2019-Aug-23 05:59 037 0 gusting 3 22.2
2019-Aug-23 05:44 038 1 gusting 5 22.2
2019-Aug-23 05:29 045 1 gusting 6 22.8
2019-Aug-23 05:14 015 3 gusting 7 22.8
2019-Aug-23 04:59 063 4 gusting 8 23.3
2019-Aug-23 04:44 047 3 gusting 8 23.9
2019-Aug-23 04:29 074 2 gusting 8 24.4
2019-Aug-23 04:14 036 6 gusting 13 25.0
2019-Aug-23 03:59 359 3 gusting 11 25.0
2019-Aug-23 03:44 098 1 gusting 11 25.0
2019-Aug-23 03:29 033 6 gusting 15 25.0
2019-Aug-23 03:14 313 3 gusting 8 23.9
2019-Aug-23 02:59 066 1 gusting 3 23.3
2019-Aug-23 02:44 056 0 gusting 4 23.3
2019-Aug-23 02:29 050 22.8
2019-Aug-23 02:14 050 23.3
2019-Aug-23 01:59 050 23.3
2019-Aug-23 01:44 050 23.3
2019-Aug-23 01:29 049 23.3
2019-Aug-23 01:14 050 0 gusting 3 23.3
2019-Aug-23 00:59 050 23.9
2019-Aug-23 00:44 049 23.9
2019-Aug-23 00:29 050 0 gusting 2 24.4
2019-Aug-23 00:14 050 24.4